TimeCDT,TemperatureF,Dew PointF,Humidity,Sea Level PressureIn,VisibilityMPH,Wind Direction,Wind SpeedMPH,Gust SpeedMPH,PrecipitationIn,Events,Conditions,WindDirDegrees,DateUTC
12:53 AM,48.9,36.0,61,30.22,10.0,North,6.9,-,N/A,,Clear,360,2012-10-29 05:53:00
1:53 AM,46.9,36.0,66,30.22,10.0,North,6.9,-,N/A,,Clear,360,2012-10-29 06:53:00
2:53 AM,46.0,34.0,63,30.21,10.0,North,5.8,-,N/A,,Clear,360,2012-10-29 07:53:00
3:53 AM,43.0,35.1,74,30.21,10.0,North,5.8,-,N/A,,Clear,10,2012-10-29 08:53:00
4:53 AM,43.0,36.0,76,30.22,10.0,NNE,6.9,-,N/A,,Clear,30,2012-10-29 09:53:00
5:53 AM,42.8,35.6,76,30.24,10.0,NE,6.9,-,N/A,,Clear,40,2012-10-29 10:53:00
6:53 AM,43.0,36.0,76,30.23,10.0,NNE,4.6,-,N/A,,Clear,30,2012-10-29 11:53:00
7:53 AM,42.1,36.0,79,30.25,10.0,NE,5.8,-,N/A,,Clear,40,2012-10-29 12:53:00
8:53 AM,51.1,42.1,71,30.27,10.0,NE,3.5,-,N/A,,Clear,40,2012-10-29 13:53:00
9:53 AM,60.1,37.9,44,30.27,10.0,ENE,11.5,-,N/A,,Clear,60,2012-10-29 14:53:00
10:53 AM,64.0,34.0,33,30.27,10.0,East,11.5,-,N/A,,Clear,80,2012-10-29 15:53:00
11:53 AM,68.0,35.1,30,30.27,10.0,ENE,9.2,-,N/A,,Clear,60,2012-10-29 16:53:00
12:53 PM,70.0,34.0,27,30.24,10.0,Calm,Calm,-,N/A,,Clear,0,2012-10-29 17:53:00
1:53 PM,72.0,32.0,23,30.21,10.0,NE,4.6,-,N/A,,Clear,40,2012-10-29 18:53:00
2:53 PM,73.0,33.1,23,30.17,10.0,South,8.1,-,N/A,,Clear,190,2012-10-29 19:53:00
3:53 PM,72.0,35.1,26,30.17,10.0,South,9.2,-,N/A,,Clear,170,2012-10-29 20:53:00
4:53 PM,71.1,39.0,31,30.15,10.0,South,9.2,-,N/A,,Clear,170,2012-10-29 21:53:00
5:53 PM,68.0,41.0,37,30.15,10.0,South,5.8,-,N/A,,Clear,170,2012-10-29 22:53:00
6:53 PM,60.1,43.0,53,30.15,10.0,SE,5.8,-,N/A,,Clear,130,2012-10-29 23:53:00
7:53 PM,61.0,44.1,54,30.15,10.0,Calm,Calm,-,N/A,,Clear,0,2012-10-30 00:53:00
9:53 PM,55.9,45.0,67,30.17,10.0,East,4.6,-,N/A,,Clear,90,2012-10-30 02:53:00
10:53 PM,55.0,45.0,69,30.17,10.0,Calm,Calm,-,N/A,,Clear,0,2012-10-30 03:53:00
11:53 PM,55.0,46.0,72,30.15,10.0,Calm,Calm,-,N/A,,Clear,0,2012-10-30 04:53:00